Location: La Tine
(46.4708°N, 7.0525°E)
Time: 01:04:30
(UTC+00:00)

Meteor 1-24 Rocket - Pass Details

Date: 24 January 2021
Orbit: 791 x 926 km, 81.3° (Epoch: 03 March)

Event Time Altitude Azimuth Distance (km) Brightness Sun altitude
Rises 18:47:17 0° 254° (WSW) 3,294 8.1 -24.4°
Reaches altitude 10° 18:52:20 10° 295° (WNW) 2,363 6.8 -25.3°
Maximum altitude 18:53:06 10° 304° (NW) 2,344 6.7 -25.4°
Drops below altitude 10° 18:53:52 10° 312° (NW) 2,365 6.6 -25.6°
Sets 18:58:58 0° 354° (N) 3,311 6.9 -26.4°
